This is the latest recevied weather packets stored in our database for station/object K1WJY. If no packets are shown the sender has not sent any weather packets the latest 1 day(s).
| Time | Temp. | Humidity | Pressure | Rain* | Wind** | Luminosity | Snow |
|---|---|---|---|---|---|---|---|
| 1778023973 | 11.67° C | 89% | 1009.7 hPa | 0 mm | 0.89 m/s, 119° | 6 W/m² | - |
| 1778023670 | 11.67° C | 88% | 1009.7 hPa | 0 mm | 1.34 m/s, 216° | 10 W/m² | - |
| 1778023367 | 12.22° C | 88% | 1009.4 hPa | 0 mm | 1.79 m/s, 177° | 12 W/m² | - |
| 1778023063 | 12.22° C | 88% | 1009.4 hPa | 0 mm | 0.89 m/s, 254° | 16 W/m² | - |
| 1778022763 | 12.22° C | 87% | 1009.4 hPa | 0 mm | 2.68 m/s, 148° | 19 W/m² | - |
| 1778022461 | 12.22° C | 87% | 1009.5 hPa | 0 mm | 1.34 m/s, 204° | 21 W/m² | - |
| 1778022157 | 12.22° C | 87% | 1009.3 hPa | 0 mm | 1.79 m/s, 114° | 23 W/m² | - |
| 1778021854 | 12.78° C | 87% | 1009.1 hPa | 0 mm | 3.13 m/s, 177° | 25 W/m² | - |
| 1778021551 | 12.78° C | 86% | 1009.6 hPa | 0 mm | 1.79 m/s, 192° | 28 W/m² | - |
| 1778021246 | 12.78° C | 85% | 1009.2 hPa | 0 mm | 3.13 m/s, 192° | 33 W/m² | - |
| 1778020944 | 12.78° C | 85% | 1009.2 hPa | 0 mm | 1.34 m/s, 228° | 37 W/m² | - |
| 1778020641 | 12.78° C | 85% | 1008.9 hPa | 0 mm | 1.34 m/s, 121° | 44 W/m² | - |
| 1778020337 | 12.78° C | 85% | 1009.3 hPa | 0 mm | 3.13 m/s, 204° | 54 W/m² | - |
| 1778020033 | 12.78° C | 84% | 1009.1 hPa | 0 mm | 2.24 m/s, 194° | 61 W/m² | - |
| 1778019729 | 13.33° C | 84% | 1009 hPa | 0 mm | 4.02 m/s, 234° | 65 W/m² | - |
| 1778019427 | 13.33° C | 83% | 1008.7 hPa | 0 mm | 3.58 m/s, 279° | 85 W/m² | - |
| 1778019123 | 13.33° C | 84% | 1008.6 hPa | 0 mm | 2.24 m/s, 195° | 118 W/m² | - |
| 1778018820 | 13.33° C | 83% | 1008.9 hPa | 0 mm | 1.34 m/s, 131° | 108 W/m² | - |
| 1778018518 | 13.89° C | 83% | 1008.8 hPa | 0 mm | 2.68 m/s, 180° | 111 W/m² | - |
| 1778018216 | 13.89° C | 82% | 1009 hPa | 0 mm | 3.13 m/s, 202° | 159 W/m² | - |
| 1778017914 | 13.89° C | 82% | 1009.2 hPa | 0 mm | 2.24 m/s, 145° | 171 W/m² | - |
| 1778017611 | 13.89° C | 82% | 1009 hPa | 0 mm | 1.34 m/s, 230° | 158 W/m² | - |
| 1778017308 | 13.89° C | 82% | 1008.9 hPa | 0 mm | 2.24 m/s, 251° | 191 W/m² | - |
| 1778017006 | 13.89° C | 81% | 1009.2 hPa | 0 mm | 3.13 m/s, 187° | 165 W/m² | - |
| 1778016703 | 14.44° C | 81% | 1009.1 hPa | 0 mm | 1.79 m/s, 204° | 226 W/m² | - |
* Rain latest hour (hover to see other rain measurements)
** Current wind speed in m/s (hover to see current wind gust speed)